Weather in Chernyshevka

Russia / Primorsky Krai     44°12′00″N   133°07′53″E
temp.,
°C
wind,
m/s
gust,
m/s
humid.,
%
clouds,
%
prec.,
mm/h
press.,
hPa
HPBL,
m
19 april, mon
mon1901:00+6w366768 0.0 1006105
04:00+4wsw237877 0.0 100657
07:00+3wsw24775 0.0 1006102
10:00+12wnw47410 0.0 10041017
13:00+15wnw58310 0.0 10031847
16:00+16nw610270 0.0 10022101
19:00+14wnw22370 0.0 100238
22:00+9sw22464 0.0 100318
20 april, tue
tue2001:00+9wnw495336 0.0 1006285
04:00+5nnw5133891 0.0 10121290
07:00+2nw613390 0.0 10161154
10:00+5wnw815240 0.0 10171632
13:00+9wnw818180 0.0 10162412
16:00+11nw818190 0.0 10152675
19:00+10nw614220 0.0 10161792
22:00+6wsw22330 0.0 101921
21 april, wed
wed2101:00+4wsw11430 0.0 102111
04:00+3sw11490 0.0 102112
07:00+3sse11500 0.0 102210
10:00+12wsw12300 0.0 1022421
13:00+18wnw12210 0.0 10211037
16:00+20w23180 0.0 10191658
19:00+18w11280 0.0 101911
22:00+11ese11370 0.0 102011
22 april, thu
thu2201:00+9se114413 0.0 102210
04:00+8e1148100 0.0 102211
07:00+9ene0149100 0.0 102210
10:00+16e0135100 0.0 1022251
13:00+21wnw2329100 0.0 1021865
16:00+23wnw3329100 0.0 10201345
19:00+18wsw3551100 0.0 1021154
22:00+13wsw2458100 0.0 102481
23 april, fri
fri2301:00+11w2256100 0.0 102551
04:00+9wsw1157100 0.0 102521
07:00+9ssw0056100 0.0 102632
10:00+13wsw1244100 0.0 1026341
13:00+17w2338100 0.0 1025745
16:00+18w3439100 0.0 10241106
19:00+15w3552100 0.0 1024206
22:00+12wsw1162100 0.0 102413